Camden, AR

4:22 PM CDT on July 22, 2017 (GMT -0500)
Harrell

Weather History for KCDH - February, 2014

Change the Weather History Date:

Saturday, February 1, 2014

  Actual Average Record
Temperature  
Mean Temperature 60 °F -  
Max Temperature 66 °F 57 °F 80 °F (2012)
Min Temperature 53 °F 32 °F 7 °F (1951)
Degree Days  
Heating Degree Days 6    
Growing Degree Days 10 (Base 50)    
Moisture  
Dew Point 51 °F    
Average Humidity 75    
Maximum Humidity 88    
Minimum Humidity 64    
Precipitation  
Precipitation 0.04 in - - ()
Sea Level Pressure  
Sea Level Pressure 29.91 in    
Wind  
Wind Speed - (North)    
Max Wind Speed -    
Max Gust Speed -    
Visibility 9 miles    
Events Rain    
Averages and records for this station are not official NWS values.
T = Trace of Precipitation, MM = Missing Value Source: NWS Daily Summary

Daily Weather History Graph

Daily Weather History Graph

Search for Another Location

Airport or City:

Trip Planner

Search our weather history database for the weather conditions in past years. The results will help you decide how hot, cold, wet, or windy it might be!

Date:

Astronomy

Feb. 01, 2014 Rise Set
Actual Time 7:07 AM CST 5:42 PM CST
Civil Twilight 6:41 AM CST 6:08 PM CST
Nautical Twilight 6:11 AM CST 6:38 PM CST
Astronomical Twilight 5:42 AM CST 7:07 PM CST
Moon 8:05 AM CST (2/1) 8:08 PM CST (2/1)
Length of Visible Light 11h 27m
Length of Day
10h 34m
Waxing Crescent, 5% of the Moon is Illuminated
Feb 1
Waxing Crescent
Feb 6
First Quarter
Feb 14
Full
Feb 22
Last Quarter
Mar 1
New

Hourly Weather History & Observations

Time (CST) Temp. Dew Point Humidity Pressure Visibility Wind Dir Wind Speed Gust Speed Precip Events Conditions
12:15 AM 57.2 °F 48.2 °F 72% 29.91 in 10.0 mi North - - N/A   Overcast
12:35 AM 57.2 °F 48.2 °F 72% 29.91 in 10.0 mi North - - N/A   Overcast
12:55 AM 57.2 °F 48.2 °F 72% 29.92 in 10.0 mi North - - N/A   Overcast
1:15 AM 57.2 °F 46.4 °F 67% 29.91 in 10.0 mi North - - N/A   Overcast
1:35 AM 57.2 °F 48.2 °F 72% 29.92 in 10.0 mi North - - N/A   Overcast
1:55 AM 55.4 °F 48.2 °F 77% 29.92 in 10.0 mi North - - N/A   Overcast
2:15 AM 55.4 °F 46.4 °F 72% 29.92 in 10.0 mi North - - N/A   Overcast
2:35 AM 55.4 °F 46.4 °F 72% 29.91 in 10.0 mi North - - N/A   Overcast
2:55 AM 55.4 °F 46.4 °F 72% 29.91 in 10.0 mi North - - N/A   Overcast
3:15 AM 55.4 °F 46.4 °F 72% 29.91 in 10.0 mi North - - N/A   Overcast
3:35 AM 53.6 °F 46.4 °F 77% 29.91 in 10.0 mi North - - N/A   Overcast
3:55 AM 53.6 °F 46.4 °F 77% 29.91 in 10.0 mi North - - N/A   Overcast
4:15 AM 53.6 °F 46.4 °F 77% 29.92 in 10.0 mi North - - N/A   Overcast
4:35 AM 53.6 °F 46.4 °F 77% 29.91 in 10.0 mi North - - N/A   Overcast
4:55 AM 53.6 °F 46.4 °F 77% 29.91 in 10.0 mi North - - N/A   Overcast
5:15 AM 53.6 °F 46.4 °F 77% 29.90 in 10.0 mi North - - N/A   Overcast
5:35 AM 53.6 °F 46.4 °F 77% 29.91 in 10.0 mi North - - N/A   Overcast
5:55 AM 53.6 °F 46.4 °F 77% 29.91 in 10.0 mi North - - N/A   Overcast
6:15 AM 53.6 °F 46.4 °F 77% 29.92 in 10.0 mi North - - N/A   Overcast
6:35 AM 53.6 °F 46.4 °F 77% 29.92 in 10.0 mi North - - N/A   Overcast
6:55 AM 53.6 °F 46.4 °F 77% 29.92 in 10.0 mi North - - N/A   Overcast
7:15 AM 53.6 °F 46.4 °F 77% 29.93 in 10.0 mi North - - N/A   Overcast
7:35 AM 53.6 °F 46.4 °F 77% 29.93 in 8.0 mi North - - N/A   Overcast
7:55 AM 53.6 °F 48.2 °F 82% 29.93 in 9.0 mi North - - N/A   Overcast
8:15 AM 53.6 °F 48.2 °F 82% 29.94 in 8.0 mi North - - N/A   Overcast
8:35 AM 53.6 °F 48.2 °F 82% 29.95 in 8.0 mi North - - N/A   Overcast
8:55 AM 55.4 °F 48.2 °F 77% 29.95 in 8.0 mi North - - N/A   Overcast
9:15 AM 55.4 °F 48.2 °F 77% 29.96 in 7.0 mi North - - N/A   Overcast
9:35 AM 55.4 °F 48.2 °F 77% 29.96 in 7.0 mi North - - N/A   Overcast
9:55 AM 55.4 °F 48.2 °F 77% 29.96 in 7.0 mi North - - N/A   Overcast
10:15 AM 55.4 °F 48.2 °F 77% 29.96 in 6.0 mi North - - N/A   Haze
10:35 AM 55.4 °F 48.2 °F 77% 29.96 in 5.0 mi North - - N/A   Haze
10:55 AM 57.2 °F 50.0 °F 77% 29.95 in 5.0 mi North - - N/A   Haze
11:15 AM 57.2 °F 50.0 °F 77% 29.96 in 5.0 mi North - - N/A   Haze
11:35 AM 57.2 °F 50.0 °F 77% 29.95 in 5.0 mi North - - N/A   Haze
11:55 AM 57.2 °F 50.0 °F 77% 29.94 in 5.0 mi North - - N/A   Haze
12:15 PM 59.0 °F 50.0 °F 72% 29.94 in 7.0 mi North - - N/A   Overcast
12:35 PM 59.0 °F 50.0 °F 72% 29.93 in 7.0 mi North - - N/A   Overcast
12:55 PM 59.0 °F 50.0 °F 72% 29.92 in 8.0 mi North - - N/A   Overcast
1:15 PM 60.8 °F 51.8 °F 72% 29.90 in 9.0 mi North - - N/A   Overcast
1:35 PM 60.8 °F 51.8 °F 72% 29.89 in 8.0 mi North - - N/A   Mostly Cloudy
1:55 PM 62.6 °F 51.8 °F 68% 29.89 in 7.0 mi North - - N/A   Scattered Clouds
2:15 PM 62.6 °F 53.6 °F 72% 29.88 in 8.0 mi North - - N/A   Scattered Clouds
2:35 PM 64.4 °F 53.6 °F 68% 29.87 in 9.0 mi North - - N/A   Mostly Cloudy
2:55 PM 64.4 °F 53.6 °F 68% 29.86 in 9.0 mi North - - N/A   Mostly Cloudy
3:15 PM 64.4 °F 53.6 °F 68% 29.86 in 9.0 mi North - - N/A   Scattered Clouds
3:35 PM 64.4 °F 53.6 °F 68% 29.86 in 9.0 mi North - - N/A   Scattered Clouds
3:55 PM 66.2 °F 53.6 °F 64% 29.86 in 10.0 mi North - - N/A   Mostly Cloudy
4:15 PM 66.2 °F 53.6 °F 64% 29.86 in 9.0 mi North - - N/A   Mostly Cloudy
4:35 PM 66.2 °F 53.6 °F 64% 29.87 in 10.0 mi North - - N/A   Overcast
4:55 PM 64.4 °F 55.4 °F 73% 29.87 in 10.0 mi North - - N/A   Overcast
5:15 PM 64.4 °F 55.4 °F 73% 29.87 in 8.0 mi North - - N/A   Overcast
5:35 PM 64.4 °F 55.4 °F 73% 29.87 in 10.0 mi North - - N/A   Mostly Cloudy
5:55 PM 64.4 °F 55.4 °F 73% 29.87 in 10.0 mi North - - N/A   Mostly Cloudy
6:15 PM 62.6 °F 55.4 °F 77% 29.87 in 10.0 mi North - - N/A   Overcast
6:35 PM 62.6 °F 55.4 °F 77% 29.87 in 9.0 mi North - - N/A   Overcast
6:55 PM 62.6 °F 55.4 °F 77% 29.87 in 10.0 mi North - - N/A   Overcast
7:15 PM 62.6 °F 55.4 °F 77% 29.88 in 10.0 mi North - - N/A   Overcast
7:35 PM 62.6 °F 55.4 °F 77% 29.88 in 10.0 mi North - - N/A   Overcast
7:55 PM 62.6 °F 55.4 °F 77% 29.89 in 10.0 mi North - - N/A   Overcast
8:15 PM 62.6 °F 55.4 °F 77% 29.88 in 10.0 mi North - - N/A   Overcast
8:35 PM 62.6 °F 55.4 °F 77% 29.89 in 10.0 mi North - - N/A   Overcast
8:55 PM 64.4 °F 55.4 °F 73% 29.89 in 10.0 mi North - - N/A   Overcast
9:15 PM 64.4 °F 55.4 °F 73% 29.89 in 10.0 mi North - - N/A   Overcast
9:35 PM 64.4 °F 55.4 °F 73% 29.90 in 10.0 mi North - - N/A   Mostly Cloudy
9:55 PM 64.4 °F 57.2 °F 77% 29.90 in 10.0 mi North - - N/A   Mostly Cloudy
10:15 PM 64.4 °F 57.2 °F 77% 29.90 in 10.0 mi North - - N/A   Mostly Cloudy
10:35 PM 64.4 °F 57.2 °F 77% 29.90 in 10.0 mi North - - N/A   Mostly Cloudy
10:55 PM 64.4 °F 57.2 °F 77% 29.90 in 10.0 mi North - - N/A   Mostly Cloudy
11:15 PM 64.4 °F 57.2 °F 77% 29.90 in 10.0 mi North - - N/A   Mostly Cloudy
11:35 PM 62.6 °F 57.2 °F 82% 29.91 in 2.0 mi North - - N/A Rain Light Rain
11:55 PM 62.6 °F 59.0 °F 88% 29.91 in 2.0 mi North - - 0.04 in Rain Heavy Rain